Pyramid Lake Weather Center

Moon Phase Calendar



Pyramid Lake Water Level
Online Cameras

 


      

Current Conditions in Spanish Springs
5/10/2021 3:49:43 PM

64°F
Feels Like 61
Clear
Humidity
19%
Pressure
30.15"
Wind
12 mph (N)
Dew Point
22°F
UV Index
4/10 (Moderate)
Visibility
6 mi

Hourly Forecast

Date & Time Mon, May 10
3:00 PM
Mon, May 10
4:00 PM
Mon, May 10
5:00 PM
Mon, May 10
6:00 PM
Mon, May 10
7:00 PM
Mon, May 10
8:00 PM
Mon, May 10
9:00 PM
Mon, May 10
10:00 PM
Mon, May 10
11:00 PM
Tue, May 11
12:00 AM
Tue, May 11
1:00 AM
Tue, May 11
2:00 AM
Tue, May 11
3:00 AM
Tue, May 11
4:00 AM
Tue, May 11
5:00 AM
Tue, May 11
6:00 AM
Tue, May 11
7:00 AM
Tue, May 11
8:00 AM
Tue, May 11
9:00 AM
Tue, May 11
10:00 AM
Tue, May 11
11:00 AM
Tue, May 11
12:00 PM
Tue, May 11
1:00 PM
Tue, May 11
2:00 PM
Tue, May 11
3:00 PM
Tue, May 11
4:00 PM
Tue, May 11
5:00 PM
Tue, May 11
6:00 PM
Tue, May 11
7:00 PM
Tue, May 11
8:00 PM
Tue, May 11
9:00 PM
Tue, May 11
10:00 PM
Tue, May 11
11:00 PM
Wed, May 12
12:00 AM
Wed, May 12
1:00 AM
Wed, May 12
2:00 AM
Wed, May 12
3:00 AM
Wed, May 12
4:00 AM
Wed, May 12
5:00 AM
Wed, May 12
6:00 AM
Wed, May 12
7:00 AM
Wed, May 12
8:00 AM
Wed, May 12
9:00 AM
Wed, May 12
10:00 AM
Wed, May 12
11:00 AM
Wed, May 12
12:00 PM
Wed, May 12
1:00 PM
Wed, May 12
2:00 PM
Condition
Clear

Clear

Clear

Clear

Clouds

Clouds

Clouds

Clouds

Clouds

Clouds

Clouds

Clouds

Clouds

Clouds

Clouds

Clear

Clear

Clear

Clear

Clear

Clear

Clear

Clear

Clear

Clear

Clear

Clear

Clear

Clear

Clear

Clear

Clear

Clear

Clear

Clear

Clear

Clear

Clear

Clear

Clear

Clear

Clear

Clear

Clear

Clear

Clouds

Clouds

Clouds
Temperature 63°F64°F64°F63°F62°F60°F58°F58°F58°F57°F56°F55°F54°F53°F52°F52°F54°F55°F57°F59°F60°F62°F63°F64°F64°F65°F66°F66°F67°F66°F65°F64°F64°F62°F61°F60°F59°F58°F57°F57°F60°F61°F63°F65°F67°F69°F70°F70°F
Feels Like 60°F61°F61°F60°F59°F57°F55°F55°F55°F53°F52°F52°F51°F50°F49°F48°F50°F52°F54°F55°F57°F59°F61°F62°F62°F62°F63°F64°F64°F63°F62°F61°F61°F59°F58°F57°F56°F55°F54°F53°F57°F59°F60°F62°F65°F67°F68°F68°F
Cloudiness 1%1%1%10%26%28%31%29%29%82%45%30%23%18%15%1%4%4%4%3%2%0%0%0%0%1%1%4%5%6%7%9%8%5%5%4%4%3%3%0%0%0%0%1%2%23%24%47%
Visibility 6 mi6 mi6 mi6 mi6 mi6 mi6 mi6 mi6 mi6 mi6 mi6 mi6 mi6 mi6 mi6 mi6 mi6 mi6 mi6 mi6 mi6 mi6 mi6 mi6 mi6 mi6 mi6 mi6 mi6 mi6 mi6 mi6 mi6 mi6 mi6 mi6 mi6 mi6 mi6 mi6 mi6 mi6 mi6 mi6 mi6 mi6 mi6 mi
Precipitation 0%0%0%0%0%0%0%0%0%0%0%0%0%0%0%0%0%0%0%0%0%0%0%0%0%0%0%0%0%0%0%0%0%0%0%0%0%0%0%0%0%0%0%0%0%0%0%0%
Humidity 21%19%21%22%22%25%26%25%23%25%27%28%30%31%32%34%33%30%28%27%26%25%24%22%22%21%21%21%21%22%22%24%21%22%23%25%26%27%27%29%28%26%25%24%23%23%22%23%
Dew Point 24°F22°F24°F25°F24°F25°F21°F20°F20°F20°F21°F21°F21°F22°F22°F22°F23°F22°F22°F22°F22°F22°F22°F21°F20°F20°F20°F21°F21°F23°F23°F24°F21°F22°F22°F22°F22°F22°F22°F23°F24°F23°F23°F24°F24°F26°F26°F26°F
Pressure 30.12"30.15"30.12"30.06"30.03"30"29.97"29.97"30"30"30"30"30"30"30"30"30.03"30.03"30.03"30.03"30"30"29.97"29.94"29.94"29.91"29.91"29.91"29.88"29.88"29.91"29.91"29.94"29.94"29.94"29.94"29.94"29.94"29.97"29.97"30"30"30"29.97"29.97"29.97"29.94"29.91"
Wind Speed 2.5 mph2.7 mph2.5 mph1.8 mph2 mph1.5 mph2.3 mph4.6 mph7.9 mph7.2 mph5.5 mph5 mph4.7 mph4.6 mph3.9 mph3.3 mph2.8 mph3.2 mph3.6 mph3.8 mph3.9 mph3.4 mph2.1 mph0.5 mph1.9 mph2.6 mph3.4 mph3.2 mph0.8 mph1.4 mph2 mph2.3 mph4.9 mph4 mph3.7 mph3.1 mph2.6 mph2.9 mph3.1 mph2.8 mph2.6 mph2.4 mph2.1 mph1.6 mph0.9 mph0.3 mph1.1 mph2.3 mph
Wind
Direction
348°
NNW
343°
NNW
349°
N
352°
N
22°
NNE
39°
NE
58°
ENE
90°
E
103°
ESE
109°
ESE
114°
ESE
116°
ESE
114°
ESE
119°
ESE
121°
ESE
115°
ESE
108°
ESE
101°
E
103°
ESE
103°
ESE
108°
ESE
119°
ESE
142°
SE
63°
ENE

N
14°
NNE

N
355°
N
287°
WNW
250°
WSW
272°
W
140°
SE
140°
SE
137°
SE
151°
SSE
166°
SSE
186°
S
196°
SSW
209°
SSW
217°
SW
217°
SW
216°
SW
204°
SSW
188°
S
183°
S
274°
W
11°
N
26°
NNE

Daily Forecast

Date High Low Precip. Humidity
Today
May 10

Clear
64 °F
48 °F
0%
32%
Tuesday
May 11

Clear
67 °F
52 °F
0%
25%
Wednesday
May 12

Clear
73 °F
57 °F
0%
23%
Thursday
May 13

Clear
76 °F
59 °F
0%
23%
Friday
May 14

Clouds
73 °F
59 °F
0%
28%
Saturday
May 15

Rain
72 °F
53 °F
88%
41%
Sunday
May 16

Rain
70 °F
52 °F
83%
52%
Monday
May 17

Rain
72 °F
57 °F
31%
52%
Tuesday
May 18

Rain
65 °F
57 °F
47%
57%
Wednesday
May 19

Rain
61 °F
42 °F
65%
30%
Thursday
May 20

Clear
53 °F
40 °F
13%
42%
Friday
May 21

Clear
62 °F
47 °F
0%
28%
Saturday
May 22

Clouds
62 °F
56 °F
0%
38%
Sunday
May 23

Clear
65 °F
53 °F
0%
50%
Monday
May 24

Clouds
77 °F
60 °F
0%
32%
Tuesday
May 25

Clear
68 °F
54 °F
0%
39%

Temperature 8-14 Day Outlook



Precipitation 8-14 Day Outlook




Quick Links
Pyramid Lake News
Pyramid Lake Photos
Pyramid Lake Videos




About Us
Contact Us
Site Map
Search Site
Advertise With Us
   
Pyramid.USLakes.info
THE PYRAMID LAKE WEBSITE

Copyright 2021, Lakes Online
Privacy    |    Legal